Wetterdaten: Dienstag, 15.09.2015
Datum Zeit Temp. A. Feuchte A. Luftdruck Regen Wind Richtung Richtung Sonnenschein ET UV Solar Taupunkt Windchill Windben Empfang
15.09.2015 00:01 9,8 C 98 % 1011,7 hPa 0,0 l/m 0,0 km/h (0 Bft) NO 50 0 min 0,000 mm 0,0 UV-I 0 W/m 9,5 C 9,8 C 0,0 km/h (0 Bft) 0,00 %
15.09.2015 00:06 9,9 C 98 % 1011,9 hPa 0,0 l/m 0,0 km/h (0 Bft) NO 45 0 min 0,000 mm 0,0 UV-I 0 W/m 9,6 C 9,9 C 0,0 km/h (0 Bft) 0,00 %
15.09.2015 00:11 10,0 C 98 % 1011,8 hPa 0,3 l/m 0,0 km/h (0 Bft) NO 45 0 min 0,000 mm 0,0 UV-I 0 W/m 9,7 C 10,0 C 0,0 km/h (0 Bft) 0,00 %
15.09.2015 00:16 10,1 C 98 % 1011,8 hPa 0,0 l/m 0,0 km/h (0 Bft) NO 46 0 min 0,000 mm 0,0 UV-I 0 W/m 9,8 C 10,1 C 0,0 km/h (0 Bft) 0,00 %
15.09.2015 00:21 10,1 C 98 % 1011,9 hPa 0,0 l/m 0,0 km/h (0 Bft) NO 42 0 min 0,000 mm 0,0 UV-I 0 W/m 9,8 C 10,1 C 0,0 km/h (0 Bft) 0,00 %
15.09.2015 00:26 10,1 C 98 % 1012,0 hPa 0,0 l/m 0,0 km/h (0 Bft) NO 44 0 min 0,000 mm 0,0 UV-I 0 W/m 9,8 C 10,1 C 0,0 km/h (0 Bft) 0,00 %
15.09.2015 00:31 10,2 C 98 % 1012,2 hPa 0,0 l/m 0,0 km/h (0 Bft) NO 46 0 min 0,000 mm 0,0 UV-I 0 W/m 9,9 C 10,2 C 0,0 km/h (0 Bft) 0,00 %
15.09.2015 00:36 10,2 C 98 % 1012,4 hPa 0,0 l/m 0,0 km/h (0 Bft) N 356 0 min 0,000 mm 0,0 UV-I 0 W/m 9,9 C 10,2 C 0,0 km/h (0 Bft) 0,00 %
15.09.2015 00:41 10,3 C 98 % 1012,3 hPa 0,0 l/m 0,0 km/h (0 Bft) NO 45 0 min 0,000 mm 0,0 UV-I 0 W/m 10,0 C 10,3 C 0,0 km/h (0 Bft) 0,00 %
15.09.2015 00:46 10,4 C 98 % 1012,5 hPa 0,0 l/m 0,0 km/h (0 Bft) NO 51 0 min 0,000 mm 0,0 UV-I 0 W/m 10,1 C 10,4 C 0,0 km/h (0 Bft) 0,00 %
15.09.2015 00:51 10,4 C 98 % 1012,6 hPa 0,0 l/m 0,0 km/h (0 Bft) NO 46 0 min 0,000 mm 0,0 UV-I 0 W/m 10,1 C 10,4 C 0,0 km/h (0 Bft) 0,00 %
15.09.2015 00:56 10,5 C 98 % 1012,6 hPa 0,0 l/m 0,0 km/h (0 Bft) N 356 0 min 0,000 mm 0,0 UV-I 0 W/m 10,2 C 10,5 C 0,0 km/h (0 Bft) 0,00 %
15.09.2015 01:01 10,6 C 98 % 1012,8 hPa 0,0 l/m 0,0 km/h (0 Bft) NO 41 0 min 0,000 mm 0,0 UV-I 0 W/m 10,3 C 10,6 C 0,0 km/h (0 Bft) 0,00 %
15.09.2015 01:06 10,7 C 98 % 1012,8 hPa 0,0 l/m 0,0 km/h (0 Bft) NO 41 0 min 0,000 mm 0,0 UV-I 0 W/m 10,4 C 10,7 C 0,0 km/h (0 Bft) 0,00 %
15.09.2015 01:11 10,8 C 98 % 1012,8 hPa 0,0 l/m 0,0 km/h (0 Bft) NO 43 0 min 0,000 mm 0,0 UV-I 0 W/m 10,5 C 10,8 C 0,0 km/h (0 Bft) 0,00 %
15.09.2015 01:16 10,8 C 97 % 1012,9 hPa 0,0 l/m 0,0 km/h (0 Bft) NO 46 0 min 0,000 mm 0,0 UV-I 0 W/m 10,3 C 10,8 C 0,0 km/h (0 Bft) 0,00 %
15.09.2015 01:21 10,9 C 97 % 1013,1 hPa 0,0 l/m 0,0 km/h (0 Bft) NO 40 0 min 0,000 mm 0,0 UV-I 0 W/m 10,4 C 10,9 C 0,0 km/h (0 Bft) 0,00 %
15.09.2015 01:26 11,0 C 97 % 1013,2 hPa 0,0 l/m 0,0 km/h (0 Bft) NO 40 0 min 0,000 mm 0,0 UV-I 0 W/m 10,5 C 11,0 C 0,0 km/h (0 Bft) 0,00 %
15.09.2015 01:31 11,1 C 97 % 1013,5 hPa 0,0 l/m 0,0 km/h (0 Bft) NO 39 0 min 0,000 mm 0,0 UV-I 0 W/m 10,6 C 11,1 C 0,0 km/h (0 Bft) 0,00 %
15.09.2015 01:36 11,1 C 97 % 1013,3 hPa 0,0 l/m 0,0 km/h (0 Bft) N-NO 22 0 min 0,000 mm 0,0 UV-I 0 W/m 10,6 C 11,1 C 0,0 km/h (0 Bft) 0,00 %
15.09.2015 01:41 11,1 C 97 % 1013,2 hPa 0,0 l/m 0,0 km/h (0 Bft) NO 46 0 min 0,000 mm 0,0 UV-I 0 W/m 10,6 C 11,1 C 0,0 km/h (0 Bft) 0,00 %
15.09.2015 01:46 11,1 C 97 % 1013,1 hPa 0,0 l/m 0,0 km/h (0 Bft) N-NO 29 0 min 0,000 mm 0,0 UV-I 0 W/m 10,6 C 11,1 C 0,0 km/h (0 Bft) 0,00 %
15.09.2015 01:51 11,1 C 97 % 1013,2 hPa 0,0 l/m 0,0 km/h (0 Bft) N 353 0 min 0,000 mm 0,0 UV-I 0 W/m 10,6 C 11,1 C 0,0 km/h (0 Bft) 0,00 %
15.09.2015 01:56 11,1 C 97 % 1012,9 hPa 0,0 l/m 0,0 km/h (0 Bft) NO 36 0 min 0,000 mm 0,0 UV-I 0 W/m 10,6 C 11,1 C 0,0 km/h (0 Bft) 0,00 %
15.09.2015 02:01 11,1 C 97 % 1013,0 hPa 0,0 l/m 0,0 km/h (0 Bft) NO 49 0 min 0,000 mm 0,0 UV-I 0 W/m 10,6 C 11,1 C 0,0 km/h (0 Bft) 0,00 %
15.09.2015 02:06 11,1 C 97 % 1013,0 hPa 0,0 l/m 0,0 km/h (0 Bft) N 353 0 min 0,000 mm 0,0 UV-I 0 W/m 10,6 C 11,1 C 0,0 km/h (0 Bft) 0,00 %
15.09.2015 02:11 11,0 C 97 % 1013,2 hPa 0,0 l/m 0,0 km/h (0 Bft) NO 51 0 min 0,000 mm 0,0 UV-I 0 W/m 10,5 C 11,0 C 0,0 km/h (0 Bft) 0,00 %
15.09.2015 02:16 11,0 C 98 % 1012,9 hPa 0,0 l/m 0,0 km/h (0 Bft) N 5 0 min 0,000 mm 0,0 UV-I 0 W/m 10,7 C 11,0 C 0,0 km/h (0 Bft) 0,00 %
15.09.2015 02:21 10,9 C 98 % 1013,1 hPa 0,0 l/m 0,0 km/h (0 Bft) O-NO 59 0 min 0,000 mm 0,0 UV-I 0 W/m 10,6 C 10,9 C 0,0 km/h (0 Bft) 0,00 %
15.09.2015 02:26 10,8 C 98 % 1013,0 hPa 0,0 l/m 0,0 km/h (0 Bft) N 357 0 min 0,000 mm 0,0 UV-I 0 W/m 10,5 C 10,8 C 0,0 km/h (0 Bft) 0,00 %
15.09.2015 02:31 10,7 C 98 % 1013,1 hPa 0,0 l/m 0,0 km/h (0 Bft) N 2 0 min 0,000 mm 0,0 UV-I 0 W/m 10,4 C 10,7 C 0,0 km/h (0 Bft) 0,00 %
15.09.2015 02:36 10,7 C 98 % 1013,3 hPa 0,0 l/m 0,0 km/h (0 Bft) N 2 0 min 0,000 mm 0,0 UV-I 0 W/m 10,4 C 10,7 C 0,0 km/h (0 Bft) 0,00 %
15.09.2015 02:41 10,6 C 98 % 1013,3 hPa 0,0 l/m 0,0 km/h (0 Bft) N 0 0 min 0,000 mm 0,0 UV-I 0 W/m 10,3 C 10,6 C 0,0 km/h (0 Bft) 0,00 %
15.09.2015 02:46 10,5 C 98 % 1013,4 hPa 0,0 l/m 0,0 km/h (0 Bft) NO 38 0 min 0,000 mm 0,0 UV-I 0 W/m 10,2 C 10,5 C 0,0 km/h (0 Bft) 0,00 %
15.09.2015 02:51 10,4 C 98 % 1013,5 hPa 0,0 l/m 0,0 km/h (0 Bft) NO 50 0 min 0,000 mm 0,0 UV-I 0 W/m 10,1 C 10,4 C 0,0 km/h (0 Bft) 0,00 %
15.09.2015 02:56 10,4 C 98 % 1013,5 hPa 0,0 l/m 0,0 km/h (0 Bft) NO 40 0 min 0,000 mm 0,0 UV-I 0 W/m 10,1 C 10,4 C 0,0 km/h (0 Bft) 0,00 %
15.09.2015 03:01 10,3 C 98 % 1013,4 hPa 0,0 l/m 0,0 km/h (0 Bft) NO 39 0 min 0,000 mm 0,0 UV-I 0 W/m 10,0 C 10,3 C 0,0 km/h (0 Bft) 0,00 %
15.09.2015 03:06 10,2 C 98 % 1013,3 hPa 0,0 l/m 0,0 km/h (0 Bft) O-NO 68 0 min 0,000 mm 0,0 UV-I 0 W/m 9,9 C 10,2 C 0,0 km/h (0 Bft) 0,00 %
15.09.2015 03:11 10,2 C 98 % 1013,4 hPa 0,0 l/m 0,0 km/h (0 Bft) N-NW 344 0 min 0,000 mm 0,0 UV-I 0 W/m 9,9 C 10,2 C 0,0 km/h (0 Bft) 0,00 %
15.09.2015 03:16 10,2 C 98 % 1013,5 hPa 0,0 l/m 0,0 km/h (0 Bft) N-NW 339 0 min 0,000 mm 0,0 UV-I 0 W/m 9,9 C 10,2 C 0,0 km/h (0 Bft) 0,00 %
15.09.2015 03:21 10,2 C 98 % 1013,4 hPa 0,0 l/m 1,8 km/h (1 Bft) N-NW 334 0 min 0,000 mm 0,0 UV-I 0 W/m 9,9 C 10,2 C 4,0 km/h (1 Bft) 0,00 %
15.09.2015 03:26 10,3 C 98 % 1013,6 hPa 0,0 l/m 0,0 km/h (0 Bft) NO 42 0 min 0,000 mm 0,0 UV-I 0 W/m 10,0 C 10,3 C 0,0 km/h (0 Bft) 0,00 %
15.09.2015 03:31 10,4 C 98 % 1013,6 hPa 0,0 l/m 0,0 km/h (0 Bft) N-NO 23 0 min 0,000 mm 0,0 UV-I 0 W/m 10,1 C 10,4 C 0,0 km/h (0 Bft) 0,00 %
15.09.2015 03:36 10,4 C 98 % 1013,7 hPa 0,0 l/m 0,4 km/h (0 Bft) W-SW 247 0 min 0,000 mm 0,0 UV-I 0 W/m 10,1 C 10,4 C 4,0 km/h (1 Bft) 0,00 %
15.09.2015 03:41 10,5 C 98 % 1014,0 hPa 0,0 l/m 1,4 km/h (1 Bft) NW 325 0 min 0,000 mm 0,0 UV-I 0 W/m 10,2 C 10,5 C 4,0 km/h (1 Bft) 0,00 %
15.09.2015 03:46 10,5 C 98 % 1013,9 hPa 0,0 l/m 0,0 km/h (0 Bft) N 353 0 min 0,000 mm 0,0 UV-I 0 W/m 10,2 C 10,5 C 0,0 km/h (0 Bft) 0,00 %
15.09.2015 03:51 10,6 C 98 % 1014,1 hPa 0,0 l/m 0,0 km/h (0 Bft) N-NO 28 0 min 0,000 mm 0,0 UV-I 0 W/m 10,3 C 10,6 C 0,0 km/h (0 Bft) 0,00 %
15.09.2015 03:56 10,6 C 98 % 1013,9 hPa 0,0 l/m 0,0 km/h (0 Bft) NO 36 0 min 0,000 mm 0,0 UV-I 0 W/m 10,3 C 10,6 C 0,0 km/h (0 Bft) 0,00 %
15.09.2015 04:01 10,7 C 98 % 1013,8 hPa 0,0 l/m 0,4 km/h (0 Bft) N-NW 327 0 min 0,000 mm 0,0 UV-I 0 W/m 10,4 C 10,7 C 4,0 km/h (1 Bft) 0,00 %
15.09.2015 04:06 10,7 C 98 % 1013,9 hPa 0,0 l/m 0,4 km/h (0 Bft) W-SW 256 0 min 0,000 mm 0,0 UV-I 0 W/m 10,4 C 10,7 C 4,0 km/h (1 Bft) 0,00 %
15.09.2015 04:11 10,7 C 98 % 1013,9 hPa 0,0 l/m 0,0 km/h (0 Bft) NO 44 0 min 0,000 mm 0,0 UV-I 0 W/m 10,4 C 10,7 C 0,0 km/h (0 Bft) 0,00 %
15.09.2015 04:16 10,6 C 98 % 1014,0 hPa 0,0 l/m 0,0 km/h (0 Bft) NO 48 0 min 0,000 mm 0,0 UV-I 0 W/m 10,3 C 10,6 C 0,0 km/h (0 Bft) 0,00 %
15.09.2015 04:21 10,6 C 98 % 1013,8 hPa 0,0 l/m 0,0 km/h (0 Bft) N 356 0 min 0,000 mm 0,0 UV-I 0 W/m 10,3 C 10,6 C 0,0 km/h (0 Bft) 0,00 %
15.09.2015 04:26 10,6 C 98 % 1013,8 hPa 0,0 l/m 0,0 km/h (0 Bft) N-NO 29 0 min 0,000 mm 0,0 UV-I 0 W/m 10,3 C 10,6 C 0,0 km/h (0 Bft) 0,00 %
15.09.2015 04:31 10,6 C 98 % 1014,0 hPa 0,0 l/m 0,0 km/h (0 Bft) NO 36 0 min 0,000 mm 0,0 UV-I 0 W/m 10,3 C 10,6 C 0,0 km/h (0 Bft) 0,00 %
15.09.2015 04:36 10,6 C 98 % 1014,0 hPa 0,0 l/m 0,0 km/h (0 Bft) NO 45 0 min 0,000 mm 0,0 UV-I 0 W/m 10,3 C 10,6 C 0,0 km/h (0 Bft) 0,00 %
15.09.2015 04:41 10,6 C 98 % 1014,2 hPa 0,0 l/m 0,0 km/h (0 Bft) N-NW 344 0 min 0,000 mm 0,0 UV-I 0 W/m 10,3 C 10,6 C 0,0 km/h (0 Bft) 0,00 %
15.09.2015 04:46 10,6 C 98 % 1014,2 hPa 0,0 l/m 0,0 km/h (0 Bft) N-NO 30 0 min 0,000 mm 0,0 UV-I 0 W/m 10,3 C 10,6 C 0,0 km/h (0 Bft) 0,00 %
15.09.2015 04:51 10,7 C 98 % 1014,1 hPa 0,0 l/m 0,0 km/h (0 Bft) NO 38 0 min 0,000 mm 0,0 UV-I 0 W/m 10,4 C 10,7 C 0,0 km/h (0 Bft) 0,00 %
15.09.2015 04:56 10,7 C 98 % 1014,1 hPa 0,0 l/m 0,0 km/h (0 Bft) NO 37 0 min 0,000 mm 0,0 UV-I 0 W/m 10,4 C 10,7 C 0,0 km/h (0 Bft) 0,00 %
15.09.2015 05:01 10,7 C 98 % 1014,1 hPa 0,0 l/m 0,0 km/h (0 Bft) NO 38 0 min 0,000 mm 0,0 UV-I 0 W/m 10,4 C 10,7 C 0,0 km/h (0 Bft) 0,00 %
15.09.2015 05:06 10,7 C 98 % 1014,0 hPa 0,0 l/m 0,0 km/h (0 Bft) NO 36 0 min 0,000 mm 0,0 UV-I 0 W/m 10,4 C 10,7 C 0,0 km/h (0 Bft) 0,00 %
15.09.2015 05:11 10,7 C 98 % 1014,2 hPa 0,0 l/m 0,0 km/h (0 Bft) NO 42 0 min 0,000 mm 0,0 UV-I 0 W/m 10,4 C 10,7 C 0,0 km/h (0 Bft) 0,00 %
15.09.2015 05:16 10,7 C 98 % 1014,0 hPa 0,0 l/m 0,0 km/h (0 Bft) NO 40 0 min 0,000 mm 0,0 UV-I 0 W/m 10,4 C 10,7 C 0,0 km/h (0 Bft) 0,00 %
15.09.2015 05:21 10,7 C 98 % 1014,2 hPa 0,0 l/m 0,0 km/h (0 Bft) NO 50 0 min 0,000 mm 0,0 UV-I 0 W/m 10,4 C 10,7 C 0,0 km/h (0 Bft) 0,00 %
15.09.2015 05:26 10,7 C 98 % 1014,3 hPa 0,0 l/m 0,0 km/h (0 Bft) NO 46 0 min 0,000 mm 0,0 UV-I 0 W/m 10,4 C 10,7 C 0,0 km/h (0 Bft) 0,00 %
15.09.2015 05:31 10,7 C 98 % 1014,2 hPa 0,0 l/m 0,0 km/h (0 Bft) NO 46 0 min 0,000 mm 0,0 UV-I 0 W/m 10,4 C 10,7 C 0,0 km/h (0 Bft) 0,00 %
15.09.2015 05:36 10,7 C 98 % 1014,3 hPa 0,0 l/m 0,0 km/h (0 Bft) N-NO 32 0 min 0,000 mm 0,0 UV-I 0 W/m 10,4 C 10,7 C 0,0 km/h (0 Bft) 0,00 %
15.09.2015 05:41 10,7 C 98 % 1014,3 hPa 0,0 l/m 0,0 km/h (0 Bft) NO 35 0 min 0,000 mm 0,0 UV-I 0 W/m 10,4 C 10,7 C 0,0 km/h (0 Bft) 0,00 %
15.09.2015 05:46 10,7 C 98 % 1014,3 hPa 0,0 l/m 0,0 km/h (0 Bft) NO 50 0 min 0,000 mm 0,0 UV-I 0 W/m 10,4 C 10,7 C 0,0 km/h (0 Bft) 0,00 %
15.09.2015 05:51 10,7 C 98 % 1014,3 hPa 0,0 l/m 0,0 km/h (0 Bft) NO 50 0 min 0,000 mm 0,0 UV-I 0 W/m 10,4 C 10,7 C 0,0 km/h (0 Bft) 0,00 %
15.09.2015 05:56 10,7 C 98 % 1014,0 hPa 0,0 l/m 0,0 km/h (0 Bft) NO 50 0 min 0,000 mm 0,0 UV-I 0 W/m 10,4 C 10,7 C 0,0 km/h (0 Bft) 0,00 %
15.09.2015 06:01 10,6 C 98 % 1014,1 hPa 0,0 l/m 0,0 km/h (0 Bft) NO 50 0 min 0,000 mm 0,0 UV-I 0 W/m 10,3 C 10,6 C 0,0 km/h (0 Bft) 0,00 %
15.09.2015 06:06 10,6 C 98 % 1014,0 hPa 0,0 l/m 0,0 km/h (0 Bft) NO 50 0 min 0,000 mm 0,0 UV-I 0 W/m 10,3 C 10,6 C 0,0 km/h (0 Bft) 0,00 %
15.09.2015 06:11 10,6 C 98 % 1014,1 hPa 0,0 l/m 0,0 km/h (0 Bft) NO 41 0 min 0,000 mm 0,0 UV-I 0 W/m 10,3 C 10,6 C 0,0 km/h (0 Bft) 0,00 %
15.09.2015 06:16 10,5 C 98 % 1014,2 hPa 0,0 l/m 0,0 km/h (0 Bft) NO 41 0 min 0,000 mm 0,0 UV-I 0 W/m 10,2 C 10,5 C 0,0 km/h (0 Bft) 0,00 %
15.09.2015 06:21 10,4 C 98 % 1014,0 hPa 0,0 l/m 0,0 km/h (0 Bft) NO 41 0 min 0,000 mm 0,0 UV-I 0 W/m 10,1 C 10,4 C 0,0 km/h (0 Bft) 0,00 %
15.09.2015 06:26 10,3 C 98 % 1014,1 hPa 0,0 l/m 0,0 km/h (0 Bft) NO 52 0 min 0,000 mm 0,0 UV-I 0 W/m 10,0 C 10,3 C 0,0 km/h (0 Bft) 0,00 %
15.09.2015 06:31 10,3 C 98 % 1013,9 hPa 0,0 l/m 0,0 km/h (0 Bft) N-NO 32 0 min 0,000 mm 0,0 UV-I 0 W/m 10,0 C 10,3 C 0,0 km/h (0 Bft) 0,00 %
15.09.2015 06:36 10,3 C 98 % 1013,7 hPa 0,0 l/m 0,0 km/h (0 Bft) N-NO 33 0 min 0,000 mm 0,0 UV-I 0 W/m 10,0 C 10,3 C 0,0 km/h (0 Bft) 0,00 %
15.09.2015 06:41 10,3 C 98 % 1013,6 hPa 0,0 l/m 0,0 km/h (0 Bft) O-NO 70 0 min 0,000 mm 0,0 UV-I 0 W/m 10,0 C 10,3 C 0,0 km/h (0 Bft) 0,00 %
15.09.2015 06:46 10,4 C 98 % 1013,8 hPa 0,0 l/m 0,0 km/h (0 Bft) NO 54 0 min 0,000 mm 0,0 UV-I 0 W/m 10,1 C 10,4 C 0,0 km/h (0 Bft) 0,00 %
15.09.2015 06:51 10,3 C 98 % 1013,9 hPa 0,0 l/m 0,0 km/h (0 Bft) NO 47 0 min 0,000 mm 0,0 UV-I 1 W/m 10,0 C 10,3 C 0,0 km/h (0 Bft) 0,00 %
15.09.2015 06:56 10,3 C 98 % 1013,8 hPa 0,0 l/m 0,0 km/h (0 Bft) NO 43 0 min 0,000 mm 0,0 UV-I 6 W/m 10,0 C 10,3 C 0,0 km/h (0 Bft) 0,00 %
15.09.2015 07:01 10,3 C 98 % 1013,7 hPa 0,0 l/m 0,0 km/h (0 Bft) NO 43 0 min 0,000 mm 0,0 UV-I 8 W/m 10,0 C 10,3 C 0,0 km/h (0 Bft) 0,00 %
15.09.2015 07:06 10,4 C 98 % 1013,8 hPa 0,0 l/m 0,0 km/h (0 Bft) NO 45 0 min 0,000 mm 0,0 UV-I 9 W/m 10,1 C 10,4 C 0,0 km/h (0 Bft) 0,00 %
15.09.2015 07:11 10,6 C 98 % 1013,7 hPa 0,0 l/m 0,0 km/h (0 Bft) NO 34 0 min 0,000 mm 0,0 UV-I 17 W/m 10,3 C 10,6 C 0,0 km/h (0 Bft) 0,00 %
15.09.2015 07:16 10,7 C 98 % 1013,6 hPa 0,0 l/m 0,0 km/h (0 Bft) NO 34 0 min 0,000 mm 0,0 UV-I 25 W/m 10,4 C 10,7 C 0,0 km/h (0 Bft) 0,00 %
15.09.2015 07:21 10,8 C 97 % 1013,7 hPa 0,0 l/m 0,0 km/h (0 Bft) NO 35 0 min 0,000 mm 0,0 UV-I 34 W/m 10,3 C 10,8 C 0,0 km/h (0 Bft) 0,00 %
15.09.2015 07:26 11,0 C 97 % 1013,6 hPa 0,0 l/m 0,0 km/h (0 Bft) NO 55 0 min 0,000 mm 0,0 UV-I 47 W/m 10,5 C 11,0 C 0,0 km/h (0 Bft) 0,00 %
15.09.2015 07:31 11,1 C 97 % 1013,7 hPa 0,0 l/m 0,0 km/h (0 Bft) NO 50 0 min 0,000 mm 0,0 UV-I 61 W/m 10,6 C 11,1 C 0,0 km/h (0 Bft) 0,00 %
15.09.2015 07:36 11,2 C 97 % 1013,7 hPa 0,0 l/m 0,0 km/h (0 Bft) NO 51 0 min 0,000 mm 0,0 UV-I 73 W/m 10,7 C 11,2 C 0,0 km/h (0 Bft) 0,00 %
15.09.2015 07:41 11,4 C 97 % 1013,7 hPa 0,0 l/m 0,0 km/h (0 Bft) N-NO 20 0 min 0,000 mm 0,0 UV-I 81 W/m 10,9 C 11,4 C 0,0 km/h (0 Bft) 0,00 %
15.09.2015 07:46 11,5 C 97 % 1013,6 hPa 0,0 l/m 0,0 km/h (0 Bft) N-NO 26 0 min 0,000 mm 0,0 UV-I 67 W/m 11,0 C 11,5 C 0,0 km/h (0 Bft) 0,00 %
15.09.2015 07:51 11,6 C 97 % 1013,7 hPa 0,0 l/m 0,0 km/h (0 Bft) O-NO 76 0 min 0,000 mm 0,0 UV-I 73 W/m 11,1 C 11,6 C 0,0 km/h (0 Bft) 0,00 %
15.09.2015 07:56 11,6 C 97 % 1013,3 hPa 0,0 l/m 0,0 km/h (0 Bft) O-NO 67 0 min 0,000 mm 0,0 UV-I 77 W/m 11,1 C 11,6 C 0,0 km/h (0 Bft) 0,00 %
15.09.2015 08:01 11,6 C 97 % 1013,5 hPa 0,0 l/m 0,0 km/h (0 Bft) NO 42 0 min 0,000 mm 0,0 UV-I 91 W/m 11,1 C 11,6 C 0,0 km/h (0 Bft) 0,00 %
15.09.2015 08:07 11,7 C 97 % 1013,3 hPa 0,0 l/m 0,4 km/h (0 Bft) NO 48 0 min 0,000 mm 0,0 UV-I 108 W/m 11,2 C 11,7 C 4,0 km/h (1 Bft) 0,00 %
15.09.2015 08:12 11,8 C 97 % 1013,6 hPa 0,0 l/m 0,0 km/h (0 Bft) N 356 0 min 0,000 mm 1,0 UV-I 113 W/m 11,3 C 11,8 C 0,0 km/h (0 Bft) 0,00 %
15.09.2015 08:17 11,9 C 99 % 1013,5 hPa 0,0 l/m 0,0 km/h (0 Bft) NO 48 0 min 0,000 mm 1,0 UV-I 134 W/m 11,7 C 11,9 C 0,0 km/h (0 Bft) 0,00 %
15.09.2015 08:22 12,1 C 99 % 1013,1 hPa 0,0 l/m 0,0 km/h (0 Bft) O-NO 69 0 min 0,000 mm 1,0 UV-I 133 W/m 11,9 C 12,1 C 0,0 km/h (0 Bft) 0,00 %
15.09.2015 08:27 12,3 C 99 % 1013,3 hPa 0,0 l/m 0,0 km/h (0 Bft) O 86 0 min 0,000 mm 1,0 UV-I 142 W/m 12,1 C 12,3 C 0,0 km/h (0 Bft) 0,00 %
15.09.2015 08:32 12,6 C 99 % 1013,1 hPa 0,0 l/m 0,0 km/h (0 Bft) NO 46 0 min 0,000 mm 1,0 UV-I 143 W/m 12,4 C 12,6 C 0,0 km/h (0 Bft) 0,00 %
15.09.2015 08:37 12,9 C 98 % 1013,0 hPa 0,0 l/m 1,4 km/h (1 Bft) NO 50 0 min 0,000 mm 1,0 UV-I 147 W/m 12,6 C 12,9 C 4,0 km/h (1 Bft) 0,00 %
15.09.2015 08:42 13,2 C 97 % 1013,3 hPa 0,0 l/m 0,0 km/h (0 Bft) N-NO 32 0 min 0,000 mm 1,0 UV-I 166 W/m 12,7 C 13,2 C 0,0 km/h (0 Bft) 0,00 %
15.09.2015 08:47 13,3 C 96 % 1013,0 hPa 0,0 l/m 1,8 km/h (1 Bft) O-NO 72 0 min 0,000 mm 1,0 UV-I 172 W/m 12,7 C 13,3 C 4,0 km/h (1 Bft) 0,00 %
15.09.2015 08:52 13,2 C 95 % 1013,0 hPa 0,0 l/m 0,0 km/h (0 Bft) NO 45 0 min 0,000 mm 1,0 UV-I 156 W/m 12,4 C 13,2 C 0,0 km/h (0 Bft) 0,00 %
15.09.2015 08:57 13,2 C 94 % 1013,0 hPa 0,0 l/m 0,0 km/h (0 Bft) O-NO 73 0 min 0,000 mm 1,0 UV-I 159 W/m 12,3 C 13,2 C 0,0 km/h (0 Bft) 0,00 %
15.09.2015 09:02 13,3 C 94 % 1013,0 hPa 0,0 l/m 0,0 km/h (0 Bft) N-NO 31 0 min 0,000 mm 1,0 UV-I 160 W/m 12,4 C 13,3 C 0,0 km/h (0 Bft) 0,00 %
15.09.2015 09:07 13,6 C 92 % 1012,9 hPa 0,0 l/m 0,0 km/h (0 Bft) O-NO 68 0 min 0,000 mm 1,0 UV-I 163 W/m 12,3 C 13,6 C 0,0 km/h (0 Bft) 0,00 %
15.09.2015 09:12 13,7 C 91 % 1012,9 hPa 0,0 l/m 0,4 km/h (0 Bft) O 94 0 min 0,000 mm 1,0 UV-I 154 W/m 12,3 C 13,7 C 4,0 km/h (1 Bft) 0,00 %
15.09.2015 09:17 13,9 C 88 % 1012,8 hPa 0,0 l/m 0,0 km/h (0 Bft) O-NO 62 0 min 0,000 mm 1,0 UV-I 143 W/m 11,9 C 13,9 C 0,0 km/h (0 Bft) 0,00 %
15.09.2015 09:22 14,0 C 87 % 1012,8 hPa 0,0 l/m 0,0 km/h (0 Bft) N 3 0 min 0,000 mm 1,0 UV-I 138 W/m 11,9 C 14,0 C 0,0 km/h (0 Bft) 0,00 %
15.09.2015 09:27 13,9 C 88 % 1012,7 hPa 0,0 l/m 1,4 km/h (1 Bft) NO 53 0 min 0,000 mm 1,0 UV-I 141 W/m 11,9 C 13,9 C 4,0 km/h (1 Bft) 0,00 %
15.09.2015 09:32 13,8 C 88 % 1012,7 hPa 0,0 l/m 0,0 km/h (0 Bft) S 183 0 min 0,000 mm 1,0 UV-I 159 W/m 11,8 C 13,8 C 0,0 km/h (0 Bft) 0,00 %
15.09.2015 09:37 13,9 C 87 % 1012,5 hPa 0,0 l/m 0,0 km/h (0 Bft) S 175 0 min 0,000 mm 1,0 UV-I 182 W/m 11,8 C 13,9 C 0,0 km/h (0 Bft) 0,00 %
15.09.2015 09:42 14,3 C 86 % 1012,5 hPa 0,0 l/m 1,4 km/h (1 Bft) O-SO 115 0 min 0,000 mm 1,0 UV-I 228 W/m 12,0 C 14,3 C 4,0 km/h (1 Bft) 0,00 %
15.09.2015 09:47 14,7 C 82 % 1012,7 hPa 0,0 l/m 0,7 km/h (0 Bft) O 91 0 min 0,000 mm 1,0 UV-I 221 W/m 11,7 C 14,7 C 4,0 km/h (1 Bft) 0,00 %
15.09.2015 09:52 15,1 C 82 % 1012,5 hPa 0,0 l/m 0,7 km/h (0 Bft) NO 46 0 min 0,000 mm 1,0 UV-I 244 W/m 12,0 C 15,1 C 4,0 km/h (1 Bft) 0,00 %
15.09.2015 09:57 15,5 C 79 % 1012,6 hPa 0,0 l/m 0,7 km/h (0 Bft) O-NO 77 0 min 0,000 mm 1,0 UV-I 250 W/m 11,9 C 15,5 C 4,0 km/h (1 Bft) 0,00 %
15.09.2015 10:02 15,8 C 76 % 1012,5 hPa 0,0 l/m 1,4 km/h (1 Bft) O 92 0 min 0,000 mm 1,0 UV-I 253 W/m 11,6 C 15,8 C 4,0 km/h (1 Bft) 0,00 %
15.09.2015 10:07 15,9 C 77 % 1012,5 hPa 0,0 l/m 7,2 km/h (2 Bft) S 172 0 min 0,000 mm 1,0 UV-I 212 W/m 11,9 C 15,5 C 7,9 km/h (2 Bft) 0,00 %
15.09.2015 10:12 15,9 C 77 % 1012,3 hPa 0,0 l/m 1,4 km/h (1 Bft) O-NO 76 0 min 0,000 mm 1,0 UV-I 280 W/m 11,9 C 15,9 C 4,0 km/h (1 Bft) 0,00 %
15.09.2015 10:17 16,0 C 78 % 1012,4 hPa 0,0 l/m 2,9 km/h (1 Bft) S 176 0 min 0,000 mm 2,0 UV-I 289 W/m 12,2 C 16,0 C 4,0 km/h (1 Bft) 0,00 %
15.09.2015 10:22 16,0 C 77 % 1012,5 hPa 0,0 l/m 3,2 km/h (1 Bft) O 98 0 min 0,000 mm 2,0 UV-I 301 W/m 12,0 C 16,0 C 7,9 km/h (2 Bft) 0,00 %
15.09.2015 10:27 15,9 C 78 % 1012,5 hPa 0,0 l/m 4,3 km/h (1 Bft) O-NO 75 5 min 0,000 mm 2,0 UV-I 318 W/m 12,1 C 15,9 C 7,9 km/h (2 Bft) 0,00 %
15.09.2015 10:32 15,9 C 75 % 1012,3 hPa 0,0 l/m 1,4 km/h (1 Bft) O-SO 105 5 min 0,000 mm 2,0 UV-I 318 W/m 11,5 C 15,9 C 4,0 km/h (1 Bft) 0,00 %
15.09.2015 10:37 16,2 C 74 % 1012,1 hPa 0,0 l/m 2,2 km/h (1 Bft) O-SO 120 0 min 0,000 mm 2,0 UV-I 309 W/m 11,6 C 16,2 C 4,0 km/h (1 Bft) 0,00 %
15.09.2015 10:42 16,5 C 72 % 1012,0 hPa 0,0 l/m 0,0 km/h (0 Bft) O-NO 78 5 min 0,000 mm 2,0 UV-I 337 W/m 11,4 C 16,5 C 0,0 km/h (0 Bft) 0,00 %
15.09.2015 10:47 16,8 C 73 % 1012,0 hPa 0,0 l/m 0,0 km/h (0 Bft) NO 53 5 min 0,000 mm 2,0 UV-I 376 W/m 11,9 C 16,8 C 0,0 km/h (0 Bft) 0,00 %
15.09.2015 10:52 17,0 C 71 % 1012,0 hPa 0,0 l/m 0,7 km/h (0 Bft) N-NO 20 5 min 0,000 mm 2,0 UV-I 373 W/m 11,7 C 17,0 C 4,0 km/h (1 Bft) 0,00 %
15.09.2015 10:57 17,2 C 71 % 1011,8 hPa 0,0 l/m 3,2 km/h (1 Bft) O-NO 68 5 min 0,000 mm 2,0 UV-I 396 W/m 11,9 C 17,2 C 4,0 km/h (1 Bft) 0,00 %
15.09.2015 11:02 17,3 C 70 % 1011,6 hPa 0,0 l/m 0,4 km/h (0 Bft) S-SO 147 5 min 0,000 mm 2,0 UV-I 352 W/m 11,8 C 17,3 C 4,0 km/h (1 Bft) 0,00 %
15.09.2015 11:07 17,4 C 72 % 1011,7 hPa 0,0 l/m 0,0 km/h (0 Bft) O-NO 73 5 min 0,000 mm 2,0 UV-I 428 W/m 12,3 C 17,4 C 0,0 km/h (0 Bft) 0,00 %
15.09.2015 11:12 17,5 C 70 % 1011,7 hPa 0,0 l/m 1,4 km/h (1 Bft) O-SO 116 5 min 0,000 mm 2,0 UV-I 482 W/m 12,0 C 17,5 C 4,0 km/h (1 Bft) 0,00 %
15.09.2015 11:17 17,8 C 68 % 1011,6 hPa 0,0 l/m 0,0 km/h (0 Bft) O-NO 73 5 min 0,000 mm 2,0 UV-I 502 W/m 11,8 C 17,8 C 0,0 km/h (0 Bft) 0,00 %
15.09.2015 11:22 18,0 C 67 % 1011,5 hPa 0,0 l/m 5,8 km/h (2 Bft) O-SO 107 5 min 0,000 mm 2,0 UV-I 415 W/m 11,8 C 18,0 C 7,9 km/h (2 Bft) 0,00 %
15.09.2015 11:27 18,1 C 66 % 1011,5 hPa 0,0 l/m 4,0 km/h (1 Bft) O 93 5 min 0,000 mm 2,0 UV-I 463 W/m 11,6 C 18,1 C 7,9 km/h (2 Bft) 0,00 %
15.09.2015 11:32 18,1 C 63 % 1011,5 hPa 0,0 l/m 1,8 km/h (1 Bft) N-NO 33 5 min 0,000 mm 2,0 UV-I 490 W/m 10,9 C 18,1 C 4,0 km/h (1 Bft) 0,00 %
15.09.2015 11:37 18,0 C 62 % 1011,5 hPa 0,0 l/m 1,8 km/h (1 Bft) N 357 5 min 0,000 mm 2,0 UV-I 517 W/m 10,6 C 18,0 C 4,0 km/h (1 Bft) 0,00 %
15.09.2015 11:42 18,1 C 64 % 1011,5 hPa 0,0 l/m 1,8 km/h (1 Bft) NO 43 5 min 0,000 mm 2,0 UV-I 514 W/m 11,2 C 18,1 C 4,0 km/h (1 Bft) 0,00 %
15.09.2015 11:47 18,1 C 63 % 1011,4 hPa 0,0 l/m 0,4 km/h (0 Bft) O-SO 109 5 min 0,000 mm 2,0 UV-I 513 W/m 10,9 C 18,1 C 4,0 km/h (1 Bft) 0,00 %
15.09.2015 11:52 18,2 C 62 % 1011,3 hPa 0,0 l/m 4,7 km/h (1 Bft) O-SO 117 5 min 0,000 mm 2,0 UV-I 497 W/m 10,8 C 18,2 C 7,9 km/h (2 Bft) 0,00 %
15.09.2015 11:57 18,3 C 62 % 1011,2 hPa 0,0 l/m 2,2 km/h (1 Bft) W 267 5 min 0,000 mm 2,0 UV-I 572 W/m 10,9 C 18,3 C 4,0 km/h (1 Bft) 0,00 %
15.09.2015 12:02 18,4 C 60 % 1011,2 hPa 0,0 l/m 4,7 km/h (1 Bft) O-NO 72 5 min 0,000 mm 2,0 UV-I 556 W/m 10,5 C 18,4 C 7,9 km/h (2 Bft) 0,00 %
15.09.2015 12:07 18,6 C 61 % 1011,0 hPa 0,0 l/m 2,9 km/h (1 Bft) O-SO 112 5 min 0,000 mm 2,0 UV-I 609 W/m 10,9 C 18,6 C 7,9 km/h (2 Bft) 0,00 %
15.09.2015 12:12 18,6 C 60 % 1011,0 hPa 0,0 l/m 0,7 km/h (0 Bft) O-SO 109 5 min 0,000 mm 2,0 UV-I 602 W/m 10,7 C 18,6 C 4,0 km/h (1 Bft) 0,00 %
15.09.2015 12:17 18,6 C 56 % 1010,9 hPa 0,0 l/m 7,9 km/h (2 Bft) O 91 5 min 0,000 mm 3,0 UV-I 638 W/m 9,6 C 17,9 C 11,9 km/h (2 Bft) 0,00 %
15.09.2015 12:22 18,7 C 56 % 1010,8 hPa 0,0 l/m 0,0 km/h (0 Bft) N 3 5 min 0,000 mm 2,0 UV-I 618 W/m 9,7 C 18,7 C 0,0 km/h (0 Bft) 0,00 %
15.09.2015 12:27 18,8 C 52 % 1010,7 hPa 0,0 l/m 0,0 km/h (0 Bft) O 99 5 min 0,000 mm 3,0 UV-I 647 W/m 8,7 C 18,8 C 0,0 km/h (0 Bft) 0,00 %
15.09.2015 12:32 19,0 C 51 % 1010,5 hPa 0,0 l/m 1,8 km/h (1 Bft) O 86 5 min 0,000 mm 3,0 UV-I 674 W/m 8,6 C 19,0 C 4,0 km/h (1 Bft) 0,00 %
15.09.2015 12:37 19,1 C 51 % 1010,6 hPa 0,0 l/m 11,5 km/h (2 Bft) O-SO 115 5 min 0,000 mm 3,0 UV-I 687 W/m 8,7 C 17,1 C 15,8 km/h (3 Bft) 0,00 %
15.09.2015 12:42 19,0 C 54 % 1010,5 hPa 0,0 l/m 2,2 km/h (1 Bft) O-SO 120 5 min 0,000 mm 3,0 UV-I 701 W/m 9,5 C 19,0 C 4,0 km/h (1 Bft) 0,00 %
15.09.2015 12:47 18,9 C 52 % 1010,4 hPa 0,0 l/m 5,4 km/h (1 Bft) SO 129 5 min 0,000 mm 3,0 UV-I 685 W/m 8,8 C 18,9 C 7,9 km/h (2 Bft) 0,00 %
15.09.2015 12:52 18,9 C 52 % 1010,2 hPa 0,0 l/m 5,4 km/h (1 Bft) O 90 5 min 0,000 mm 3,0 UV-I 658 W/m 8,8 C 18,9 C 7,9 km/h (2 Bft) 0,00 %
15.09.2015 12:57 19,0 C 50 % 1010,3 hPa 0,0 l/m 8,3 km/h (2 Bft) O 89 5 min 0,000 mm 3,0 UV-I 703 W/m 8,3 C 18,2 C 11,9 km/h (2 Bft) 0,00 %
15.09.2015 13:02 19,1 C 50 % 1010,5 hPa 0,0 l/m 0,7 km/h (0 Bft) O 81 5 min 0,000 mm 3,0 UV-I 700 W/m 8,4 C 19,1 C 4,0 km/h (1 Bft) 0,00 %
15.09.2015 13:07 19,4 C 50 % 1010,4 hPa 0,0 l/m 0,7 km/h (0 Bft) O-SO 106 0 min 0,000 mm 2,0 UV-I 305 W/m 8,7 C 19,4 C 4,0 km/h (1 Bft) 0,00 %
15.09.2015 13:12 19,4 C 52 % 1010,5 hPa 0,0 l/m 1,4 km/h (1 Bft) SO 125 5 min 0,000 mm 3,0 UV-I 522 W/m 9,3 C 19,4 C 4,0 km/h (1 Bft) 0,00 %
15.09.2015 13:17 19,5 C 53 % 1010,3 hPa 0,0 l/m 2,9 km/h (1 Bft) O-SO 117 5 min 0,000 mm 3,0 UV-I 777 W/m 9,7 C 19,5 C 4,0 km/h (1 Bft) 0,00 %
15.09.2015 13:22 19,5 C 55 % 1010,2 hPa 0,0 l/m 0,7 km/h (0 Bft) O-NO 57 5 min 0,000 mm 3,0 UV-I 854 W/m 10,2 C 19,5 C 4,0 km/h (1 Bft) 0,00 %
15.09.2015 13:27 19,6 C 53 % 1010,5 hPa 0,0 l/m 0,7 km/h (0 Bft) O 81 0 min 0,000 mm 2,0 UV-I 368 W/m 9,8 C 19,6 C 4,0 km/h (1 Bft) 0,00 %
15.09.2015 13:32 19,8 C 55 % 1010,1 hPa 0,0 l/m 0,0 km/h (0 Bft) NO 39 0 min 0,000 mm 2,0 UV-I 361 W/m 10,5 C 19,8 C 0,0 km/h (0 Bft) 0,00 %
15.09.2015 13:37 19,6 C 56 % 1010,2 hPa 0,0 l/m 0,0 km/h (0 Bft) O-NO 76 5 min 0,000 mm 2,0 UV-I 396 W/m 10,6 C 19,6 C 0,0 km/h (0 Bft) 0,00 %
15.09.2015 13:42 19,5 C 59 % 1010,3 hPa 0,0 l/m 5,4 km/h (1 Bft) S-SW 203 0 min 0,000 mm 1,0 UV-I 296 W/m 11,3 C 19,5 C 7,9 km/h (2 Bft) 0,00 %
15.09.2015 13:47 19,5 C 60 % 1010,3 hPa 0,0 l/m 2,9 km/h (1 Bft) O 100 0 min 0,000 mm 1,0 UV-I 327 W/m 11,5 C 19,5 C 4,0 km/h (1 Bft) 0,00 %
15.09.2015 13:52 19,3 C 61 % 1010,2 hPa 0,0 l/m 0,4 km/h (0 Bft) O-SO 111 0 min 0,000 mm 1,0 UV-I 340 W/m 11,6 C 19,3 C 4,0 km/h (1 Bft) 0,00 %
15.09.2015 13:57 19,1 C 60 % 1010,2 hPa 0,0 l/m 1,4 km/h (1 Bft) S-SO 162 5 min 0,000 mm 2,0 UV-I 442 W/m 11,1 C 19,1 C 4,0 km/h (1 Bft) 0,00 %
15.09.2015 14:02 19,3 C 59 % 1010,2 hPa 0,0 l/m 0,4 km/h (0 Bft) N-NW 345 5 min 0,000 mm 2,0 UV-I 388 W/m 11,1 C 19,3 C 4,0 km/h (1 Bft) 0,00 %
15.09.2015 14:07 19,5 C 60 % 1010,3 hPa 0,0 l/m 3,2 km/h (1 Bft) O-SO 110 5 min 0,000 mm 2,0 UV-I 375 W/m 11,5 C 19,5 C 4,0 km/h (1 Bft) 0,00 %
15.09.2015 14:12 19,6 C 59 % 1010,1 hPa 0,0 l/m 1,8 km/h (1 Bft) N 353 0 min 0,000 mm 1,0 UV-I 332 W/m 11,4 C 19,6 C 4,0 km/h (1 Bft) 0,00 %
15.09.2015 14:17 19,6 C 60 % 1010,3 hPa 0,0 l/m 1,4 km/h (1 Bft) O 85 0 min 0,000 mm 2,0 UV-I 356 W/m 11,6 C 19,6 C 4,0 km/h (1 Bft) 0,00 %
15.09.2015 14:22 19,4 C 60 % 1010,0 hPa 0,0 l/m 2,9 km/h (1 Bft) O-SO 113 5 min 0,000 mm 2,0 UV-I 370 W/m 11,4 C 19,4 C 4,0 km/h (1 Bft) 0,00 %
15.09.2015 14:27 19,4 C 61 % 1009,9 hPa 0,0 l/m 0,0 km/h (0 Bft) O-NO 62 5 min 0,000 mm 2,0 UV-I 361 W/m 11,7 C 19,4 C 0,0 km/h (0 Bft) 0,00 %
15.09.2015 14:32 19,4 C 59 % 1010,0 hPa 0,0 l/m 0,0 km/h (0 Bft) NO 50 0 min 0,000 mm 1,0 UV-I 312 W/m 11,2 C 19,4 C 0,0 km/h (0 Bft) 0,00 %
15.09.2015 14:37 19,6 C 60 % 1009,9 hPa 0,0 l/m 2,2 km/h (1 Bft) N-NW 340 0 min 0,000 mm 2,0 UV-I 337 W/m 11,6 C 19,6 C 4,0 km/h (1 Bft) 0,00 %
15.09.2015 14:42 19,7 C 59 % 1009,8 hPa 0,0 l/m 0,0 km/h (0 Bft) N-NW 339 0 min 0,000 mm 2,0 UV-I 326 W/m 11,5 C 19,7 C 0,0 km/h (0 Bft) 0,00 %
15.09.2015 14:47 19,7 C 61 % 1009,9 hPa 0,0 l/m 0,7 km/h (0 Bft) N-NW 347 0 min 0,000 mm 2,0 UV-I 329 W/m 12,0 C 19,7 C 4,0 km/h (1 Bft) 0,00 %
15.09.2015 14:52 19,8 C 57 % 1009,7 hPa 0,0 l/m 1,4 km/h (1 Bft) N-NO 24 0 min 0,000 mm 1,0 UV-I 302 W/m 11,0 C 19,8 C 4,0 km/h (1 Bft) 0,00 %
15.09.2015 14:57 19,9 C 57 % 1009,8 hPa 0,0 l/m 0,7 km/h (0 Bft) N 7 0 min 0,000 mm 1,0 UV-I 244 W/m 11,1 C 19,9 C 4,0 km/h (1 Bft) 0,00 %
15.09.2015 15:02 19,9 C 59 % 1009,6 hPa 0,0 l/m 0,0 km/h (0 Bft) N 355 0 min 0,000 mm 1,0 UV-I 193 W/m 11,6 C 19,9 C 0,0 km/h (0 Bft) 0,00 %
15.09.2015 15:07 19,8 C 59 % 1009,6 hPa 0,0 l/m 1,8 km/h (1 Bft) W-NW 303 0 min 0,000 mm 1,0 UV-I 187 W/m 11,6 C 19,8 C 4,0 km/h (1 Bft) 0,00 %
15.09.2015 15:12 19,8 C 59 % 1009,7 hPa 0,0 l/m 0,0 km/h (0 Bft) NO 51 0 min 0,000 mm 1,0 UV-I 193 W/m 11,6 C 19,8 C 0,0 km/h (0 Bft) 0,00 %
15.09.2015 15:17 19,8 C 56 % 1009,4 hPa 0,0 l/m 2,9 km/h (1 Bft) NO 52 0 min 0,000 mm 1,0 UV-I 186 W/m 10,8 C 19,8 C 4,0 km/h (1 Bft) 0,00 %
15.09.2015 15:22 19,8 C 56 % 1009,5 hPa 0,0 l/m 0,4 km/h (0 Bft) N-NO 21 0 min 0,000 mm 1,0 UV-I 186 W/m 10,8 C 19,8 C 4,0 km/h (1 Bft) 0,00 %
15.09.2015 15:27 19,7 C 57 % 1009,3 hPa 0,0 l/m 0,0 km/h (0 Bft) O-NO 78 0 min 0,000 mm 1,0 UV-I 232 W/m 10,9 C 19,7 C 0,0 km/h (0 Bft) 0,00 %
15.09.2015 15:32 19,5 C 58 % 1009,7 hPa 0,0 l/m 0,0 km/h (0 Bft) NO 36 0 min 0,000 mm 1,0 UV-I 216 W/m 11,0 C 19,5 C 0,0 km/h (0 Bft) 0,00 %
15.09.2015 15:37 19,5 C 60 % 1009,7 hPa 0,0 l/m 0,0 km/h (0 Bft) NO 46 0 min 0,000 mm 1,0 UV-I 214 W/m 11,5 C 19,5 C 0,0 km/h (0 Bft) 0,00 %
15.09.2015 15:42 19,5 C 59 % 1009,2 hPa 0,0 l/m 0,0 km/h (0 Bft) NO 44 0 min 0,000 mm 1,0 UV-I 184 W/m 11,3 C 19,5 C 0,0 km/h (0 Bft) 0,00 %
15.09.2015 15:47 19,6 C 57 % 1008,8 hPa 0,0 l/m 0,0 km/h (0 Bft) O-NO 76 0 min 0,000 mm 1,0 UV-I 191 W/m 10,8 C 19,6 C 0,0 km/h (0 Bft) 0,00 %
15.09.2015 15:52 19,7 C 57 % 1009,2 hPa 0,0 l/m 0,0 km/h (0 Bft) N 8 0 min 0,000 mm 1,0 UV-I 226 W/m 10,9 C 19,7 C 0,0 km/h (0 Bft) 0,00 %
15.09.2015 15:57 19,8 C 59 % 1009,1 hPa 0,0 l/m 0,4 km/h (0 Bft) N 352 5 min 0,000 mm 1,0 UV-I 293 W/m 11,6 C 19,8 C 4,0 km/h (1 Bft) 0,00 %
15.09.2015 16:02 19,9 C 59 % 1009,2 hPa 0,0 l/m 0,0 km/h (0 Bft) NO 40 5 min 0,000 mm 1,0 UV-I 330 W/m 11,6 C 19,9 C 0,0 km/h (0 Bft) 0,00 %
15.09.2015 16:07 20,1 C 56 % 1009,0 hPa 0,0 l/m 0,0 km/h (0 Bft) NW 324 5 min 0,000 mm 1,0 UV-I 280 W/m 11,0 C 20,1 C 0,0 km/h (0 Bft) 0,00 %
15.09.2015 16:12 20,5 C 56 % 1008,9 hPa 0,0 l/m 0,0 km/h (0 Bft) N-NO 31 5 min 0,000 mm 1,0 UV-I 272 W/m 11,4 C 20,5 C 0,0 km/h (0 Bft) 0,00 %
15.09.2015 16:17 20,7 C 57 % 1009,2 hPa 0,0 l/m 0,0 km/h (0 Bft) O-NO 58 0 min 0,000 mm 1,0 UV-I 237 W/m 11,9 C 20,7 C 0,0 km/h (0 Bft) 0,00 %
15.09.2015 16:22 20,6 C 56 % 1008,9 hPa 0,0 l/m 0,4 km/h (0 Bft) O 97 0 min 0,000 mm 1,0 UV-I 233 W/m 11,5 C 20,6 C 4,0 km/h (1 Bft) 0,00 %
15.09.2015 16:27 20,4 C 57 % 1008,9 hPa 0,0 l/m 0,0 km/h (0 Bft) NO 55 0 min 0,000 mm 1,0 UV-I 221 W/m 11,6 C 20,4 C 0,0 km/h (0 Bft) 0,00 %
15.09.2015 16:32 20,4 C 55 % 1009,0 hPa 0,0 l/m 0,0 km/h (0 Bft) NO 47 0 min 0,000 mm 1,0 UV-I 234 W/m 11,1 C 20,4 C 0,0 km/h (0 Bft) 0,00 %
15.09.2015 16:37 20,5 C 55 % 1008,9 hPa 0,0 l/m 0,0 km/h (0 Bft) N 355 0 min 0,000 mm 1,0 UV-I 196 W/m 11,1 C 20,5 C 0,0 km/h (0 Bft) 0,00 %
15.09.2015 16:42 20,5 C 56 % 1008,8 hPa 0,0 l/m 0,0 km/h (0 Bft) N-NO 32 0 min 0,000 mm 1,0 UV-I 216 W/m 11,4 C 20,5 C 0,0 km/h (0 Bft) 0,00 %
15.09.2015 16:47 20,3 C 57 % 1009,1 hPa 0,0 l/m 0,0 km/h (0 Bft) NO 45 0 min 0,000 mm 1,0 UV-I 204 W/m 11,5 C 20,3 C 0,0 km/h (0 Bft) 0,00 %
15.09.2015 16:52 20,3 C 57 % 1008,9 hPa 0,0 l/m 0,0 km/h (0 Bft) O-NO 69 5 min 0,000 mm 1,0 UV-I 649 W/m 11,5 C 20,3 C 0,0 km/h (0 Bft) 0,00 %
15.09.2015 16:57 20,4 C 56 % 1009,1 hPa 0,0 l/m 0,7 km/h (0 Bft) NW 311 5 min 0,000 mm 1,0 UV-I 551 W/m 11,3 C 20,4 C 4,0 km/h (1 Bft) 0,00 %
15.09.2015 17:02 20,7 C 52 % 1008,6 hPa 0,0 l/m 0,4 km/h (0 Bft) N 352 5 min 0,000 mm 1,0 UV-I 242 W/m 10,5 C 20,7 C 4,0 km/h (1 Bft) 0,00 %
15.09.2015 17:07 21,0 C 53 % 1008,9 hPa 0,0 l/m 0,0 km/h (0 Bft) NO 44 0 min 0,000 mm 1,0 UV-I 182 W/m 11,0 C 21,0 C 0,0 km/h (0 Bft) 0,00 %
15.09.2015 17:12 21,0 C 55 % 1008,9 hPa 0,0 l/m 0,0 km/h (0 Bft) NO 50 0 min 0,000 mm 1,0 UV-I 172 W/m 11,6 C 21,0 C 0,0 km/h (0 Bft) 0,00 %
15.09.2015 17:17 20,7 C 56 % 1008,7 hPa 0,0 l/m 0,0 km/h (0 Bft) NO 37 5 min 0,000 mm 1,0 UV-I 400 W/m 11,6 C 20,7 C 0,0 km/h (0 Bft) 0,00 %
15.09.2015 17:22 20,5 C 57 % 1008,7 hPa 0,0 l/m 0,0 km/h (0 Bft) N-NO 33 5 min 0,000 mm 1,0 UV-I 478 W/m 11,7 C 20,5 C 0,0 km/h (0 Bft) 0,00 %
15.09.2015 17:27 20,5 C 54 % 1008,7 hPa 0,0 l/m 0,0 km/h (0 Bft) NO 38 5 min 0,000 mm 1,0 UV-I 221 W/m 10,9 C 20,5 C 0,0 km/h (0 Bft) 0,00 %
15.09.2015 17:32 20,8 C 54 % 1008,9 hPa 0,0 l/m 0,0 km/h (0 Bft) NO 44 5 min 0,000 mm 1,0 UV-I 189 W/m 11,1 C 20,8 C 0,0 km/h (0 Bft) 0,00 %
15.09.2015 17:37 20,9 C 57 % 1009,0 hPa 0,0 l/m 0,0 km/h (0 Bft) NO 52 5 min 0,000 mm 1,0 UV-I 306 W/m 12,1 C 20,9 C 0,0 km/h (0 Bft) 0,00 %
15.09.2015 17:42 20,8 C 56 % 1009,1 hPa 0,0 l/m 0,0 km/h (0 Bft) N 355 5 min 0,000 mm 1,0 UV-I 222 W/m 11,7 C 20,8 C 0,0 km/h (0 Bft) 0,00 %
15.09.2015 17:47 20,7 C 57 % 1009,1 hPa 0,0 l/m 0,0 km/h (0 Bft) NO 39 5 min 0,000 mm 1,0 UV-I 244 W/m 11,9 C 20,7 C 0,0 km/h (0 Bft) 0,00 %
15.09.2015 17:52 20,7 C 58 % 1009,1 hPa 0,0 l/m 0,0 km/h (0 Bft) NO 45 5 min 0,000 mm 1,0 UV-I 155 W/m 12,1 C 20,7 C 0,0 km/h (0 Bft) 0,00 %
15.09.2015 17:57 20,6 C 58 % 1009,3 hPa 0,0 l/m 0,4 km/h (0 Bft) N 351 5 min 0,000 mm 0,0 UV-I 119 W/m 12,0 C 20,6 C 4,0 km/h (1 Bft) 0,00 %
15.09.2015 18:02 20,2 C 61 % 1009,3 hPa 0,0 l/m 0,4 km/h (0 Bft) N 351 0 min 0,000 mm 0,0 UV-I 108 W/m 12,4 C 20,2 C 4,0 km/h (1 Bft) 0,00 %
15.09.2015 18:07 19,9 C 62 % 1009,3 hPa 0,0 l/m 0,0 km/h (0 Bft) N 352 0 min 0,000 mm 0,0 UV-I 98 W/m 12,4 C 19,9 C 0,0 km/h (0 Bft) 0,00 %
15.09.2015 18:12 19,5 C 63 % 1009,4 hPa 0,0 l/m 0,7 km/h (0 Bft) NW 311 0 min 0,000 mm 0,0 UV-I 85 W/m 12,3 C 19,5 C 4,0 km/h (1 Bft) 0,00 %
15.09.2015 18:17 19,3 C 63 % 1009,2 hPa 0,0 l/m 0,0 km/h (0 Bft) NO 45 0 min 0,000 mm 0,0 UV-I 75 W/m 12,1 C 19,3 C 0,0 km/h (0 Bft) 0,00 %
15.09.2015 18:22 19,0 C 64 % 1009,5 hPa 0,0 l/m 0,0 km/h (0 Bft) N 355 0 min 0,000 mm 0,0 UV-I 61 W/m 12,0 C 19,0 C 0,0 km/h (0 Bft) 0,00 %
15.09.2015 18:27 18,8 C 65 % 1009,5 hPa 0,0 l/m 1,4 km/h (1 Bft) N-NW 335 0 min 0,000 mm 0,0 UV-I 53 W/m 12,1 C 18,8 C 4,0 km/h (1 Bft) 0,00 %
15.09.2015 18:32 18,6 C 65 % 1009,6 hPa 0,0 l/m 0,4 km/h (0 Bft) W-NW 291 0 min 0,000 mm 0,0 UV-I 44 W/m 11,9 C 18,6 C 4,0 km/h (1 Bft) 0,00 %
15.09.2015 18:37 18,4 C 66 % 1009,8 hPa 0,0 l/m 1,4 km/h (1 Bft) N-NW 333 0 min 0,000 mm 0,0 UV-I 33 W/m 11,9 C 18,4 C 4,0 km/h (1 Bft) 0,00 %
15.09.2015 18:42 18,2 C 67 % 1009,9 hPa 0,0 l/m 2,2 km/h (1 Bft) W-SW 256 0 min 0,000 mm 0,0 UV-I 28 W/m 12,0 C 18,2 C 4,0 km/h (1 Bft) 0,00 %
15.09.2015 18:47 18,1 C 67 % 1009,8 hPa 0,0 l/m 0,0 km/h (0 Bft) NO 49 0 min 0,000 mm 0,0 UV-I 25 W/m 11,9 C 18,1 C 0,0 km/h (0 Bft) 0,00 %
15.09.2015 18:52 17,9 C 70 % 1009,8 hPa 0,0 l/m 1,4 km/h (1 Bft) W 278 0 min 0,000 mm 0,0 UV-I 21 W/m 12,3 C 17,9 C 4,0 km/h (1 Bft) 0,00 %
15.09.2015 18:57 17,7 C 71 % 1009,8 hPa 0,0 l/m 0,0 km/h (0 Bft) N-NW 333 0 min 0,000 mm 0,0 UV-I 12 W/m 12,4 C 17,7 C 0,0 km/h (0 Bft) 0,00 %
15.09.2015 19:02 17,5 C 71 % 1010,0 hPa 0,0 l/m 0,0 km/h (0 Bft) N 351 0 min 0,000 mm 0,0 UV-I 6 W/m 12,2 C 17,5 C 0,0 km/h (0 Bft) 0,00 %
15.09.2015 19:07 17,3 C 72 % 1009,8 hPa 0,0 l/m 0,0 km/h (0 Bft) N-NW 348 0 min 0,000 mm 0,0 UV-I 0 W/m 12,2 C 17,3 C 0,0 km/h (0 Bft) 0,00 %
15.09.2015 19:12 17,2 C 72 % 1009,8 hPa 0,0 l/m 0,0 km/h (0 Bft) N-NO 29 0 min 0,000 mm 0,0 UV-I 0 W/m 12,1 C 17,2 C 0,0 km/h (0 Bft) 0,00 %
15.09.2015 19:17 17,1 C 72 % 1009,9 hPa 0,0 l/m 0,4 km/h (0 Bft) N 353 0 min 0,000 mm 0,0 UV-I 0 W/m 12,0 C 17,1 C 4,0 km/h (1 Bft) 0,00 %
15.09.2015 19:22 17,0 C 72 % 1010,0 hPa 0,0 l/m 3,2 km/h (1 Bft) NW 308 0 min 0,000 mm 0,0 UV-I 0 W/m 11,9 C 17,0 C 4,0 km/h (1 Bft) 0,00 %
15.09.2015 19:27 16,9 C 71 % 1010,1 hPa 0,0 l/m 0,0 km/h (0 Bft) N-NO 30 0 min 0,000 mm 0,0 UV-I 0 W/m 11,6 C 16,9 C 0,0 km/h (0 Bft) 0,00 %
15.09.2015 19:32 16,8 C 72 % 1010,3 hPa 0,0 l/m 0,0 km/h (0 Bft) N-NO 23 0 min 0,000 mm 0,0 UV-I 0 W/m 11,7 C 16,8 C 0,0 km/h (0 Bft) 0,00 %
15.09.2015 19:37 16,7 C 72 % 1010,0 hPa 0,0 l/m 0,0 km/h (0 Bft) N-NO 33 0 min 0,000 mm 0,0 UV-I 0 W/m 11,6 C 16,7 C 0,0 km/h (0 Bft) 0,00 %
15.09.2015 19:42 16,6 C 72 % 1010,1 hPa 0,0 l/m 0,0 km/h (0 Bft) NO 46 0 min 0,000 mm 0,0 UV-I 0 W/m 11,5 C 16,6 C 0,0 km/h (0 Bft) 0,00 %
15.09.2015 19:47 16,5 C 72 % 1010,4 hPa 0,0 l/m 0,0 km/h (0 Bft) NO 54 0 min 0,000 mm 0,0 UV-I 0 W/m 11,4 C 16,5 C 0,0 km/h (0 Bft) 0,00 %
15.09.2015 19:52 16,5 C 73 % 1010,4 hPa 0,0 l/m 0,0 km/h (0 Bft) O-NO 64 0 min 0,000 mm 0,0 UV-I 0 W/m 11,6 C 16,5 C 0,0 km/h (0 Bft) 0,00 %
15.09.2015 19:57 16,5 C 72 % 1010,4 hPa 0,0 l/m 0,4 km/h (0 Bft) N-NW 340 0 min 0,000 mm 0,0 UV-I 0 W/m 11,4 C 16,5 C 4,0 km/h (1 Bft) 0,00 %
15.09.2015 20:02 16,5 C 72 % 1010,4 hPa 0,0 l/m 0,0 km/h (0 Bft) N 352 0 min 0,000 mm 0,0 UV-I 0 W/m 11,4 C 16,5 C 0,0 km/h (0 Bft) 0,00 %
15.09.2015 20:07 16,5 C 72 % 1010,5 hPa 0,0 l/m 0,0 km/h (0 Bft) N-NW 344 0 min 0,000 mm 0,0 UV-I 0 W/m 11,4 C 16,5 C 0,0 km/h (0 Bft) 0,00 %
15.09.2015 20:12 16,6 C 72 % 1010,5 hPa 0,0 l/m 0,0 km/h (0 Bft) NO 35 0 min 0,000 mm 0,0 UV-I 0 W/m 11,5 C 16,6 C 0,0 km/h (0 Bft) 0,00 %
15.09.2015 20:17 16,5 C 73 % 1010,5 hPa 0,0 l/m 0,0 km/h (0 Bft) NO 51 0 min 0,000 mm 0,0 UV-I 0 W/m 11,6 C 16,5 C 0,0 km/h (0 Bft) 0,00 %
15.09.2015 20:22 16,5 C 73 % 1010,7 hPa 0,0 l/m 0,4 km/h (0 Bft) O-NO 64 0 min 0,000 mm 0,0 UV-I 0 W/m 11,6 C 16,5 C 4,0 km/h (1 Bft) 0,00 %
15.09.2015 20:27 16,5 C 72 % 1010,6 hPa 0,0 l/m 0,0 km/h (0 Bft) NO 35 0 min 0,000 mm 0,0 UV-I 0 W/m 11,4 C 16,5 C 0,0 km/h (0 Bft) 0,00 %
15.09.2015 20:32 16,5 C 72 % 1010,5 hPa 0,0 l/m 0,4 km/h (0 Bft) NW 312 0 min 0,000 mm 0,0 UV-I 0 W/m 11,4 C 16,5 C 4,0 km/h (1 Bft) 0,00 %
15.09.2015 20:37 16,5 C 72 % 1010,7 hPa 0,0 l/m 0,0 km/h (0 Bft) N-NO 19 0 min 0,000 mm 0,0 UV-I 0 W/m 11,4 C 16,5 C 0,0 km/h (0 Bft) 0,00 %
15.09.2015 20:42 16,6 C 72 % 1010,6 hPa 0,0 l/m 0,0 km/h (0 Bft) NO 52 0 min 0,000 mm 0,0 UV-I 0 W/m 11,5 C 16,6 C 0,0 km/h (0 Bft) 0,00 %
15.09.2015 20:47 16,6 C 73 % 1010,4 hPa 0,0 l/m 0,0 km/h (0 Bft) N-NO 23 0 min 0,000 mm 0,0 UV-I 0 W/m 11,7 C 16,6 C 0,0 km/h (0 Bft) 0,00 %
15.09.2015 20:52 16,5 C 73 % 1010,4 hPa 0,0 l/m 0,4 km/h (0 Bft) N-NW 344 0 min 0,000 mm 0,0 UV-I 0 W/m 11,6 C 16,5 C 4,0 km/h (1 Bft) 0,00 %
15.09.2015 20:57 16,4 C 72 % 1010,0 hPa 0,0 l/m 0,0 km/h (0 Bft) NO 41 0 min 0,000 mm 0,0 UV-I 0 W/m 11,3 C 16,4 C 0,0 km/h (0 Bft) 0,00 %
15.09.2015 21:02 16,4 C 72 % 1010,3 hPa 0,0 l/m 0,0 km/h (0 Bft) NO 48 0 min 0,000 mm 0,0 UV-I 0 W/m 11,3 C 16,4 C 0,0 km/h (0 Bft) 0,00 %
15.09.2015 21:07 16,3 C 72 % 1010,3 hPa 0,0 l/m 0,0 km/h (0 Bft) NO 46 0 min 0,000 mm 0,0 UV-I 0 W/m 11,2 C 16,3 C 0,0 km/h (0 Bft) 0,00 %
15.09.2015 21:12 16,3 C 72 % 1010,1 hPa 0,0 l/m 1,8 km/h (1 Bft) NW 319 0 min 0,000 mm 0,0 UV-I 0 W/m 11,2 C 16,3 C 4,0 km/h (1 Bft) 0,00 %
15.09.2015 21:17 16,3 C 72 % 1010,0 hPa 0,0 l/m 0,0 km/h (0 Bft) NO 52 0 min 0,000 mm 0,0 UV-I 0 W/m 11,2 C 16,3 C 0,0 km/h (0 Bft) 0,00 %
15.09.2015 21:22 16,2 C 73 % 1010,1 hPa 0,0 l/m 0,0 km/h (0 Bft) N 6 0 min 0,000 mm 0,0 UV-I 0 W/m 11,4 C 16,2 C 0,0 km/h (0 Bft) 0,00 %
15.09.2015 21:27 16,1 C 73 % 1010,2 hPa 0,0 l/m 0,0 km/h (0 Bft) O-NO 63 0 min 0,000 mm 0,0 UV-I 0 W/m 11,3 C 16,1 C 0,0 km/h (0 Bft) 0,00 %
15.09.2015 21:32 15,9 C 75 % 1010,2 hPa 0,0 l/m 0,0 km/h (0 Bft) O-NO 74 0 min 0,000 mm 0,0 UV-I 0 W/m 11,5 C 15,9 C 0,0 km/h (0 Bft) 0,00 %
15.09.2015 21:37 15,9 C 75 % 1010,2 hPa 0,0 l/m 0,0 km/h (0 Bft) W-SW 256 0 min 0,000 mm 0,0 UV-I 0 W/m 11,5 C 15,9 C 0,0 km/h (0 Bft) 0,00 %
15.09.2015 21:42 15,8 C 76 % 1010,2 hPa 0,0 l/m 0,0 km/h (0 Bft) NO 45 0 min 0,000 mm 0,0 UV-I 0 W/m 11,6 C 15,8 C 0,0 km/h (0 Bft) 0,00 %
15.09.2015 21:47 15,8 C 76 % 1010,3 hPa 0,0 l/m 0,0 km/h (0 Bft) NW 311 0 min 0,000 mm 0,0 UV-I 0 W/m 11,6 C 15,8 C 0,0 km/h (0 Bft) 0,00 %
15.09.2015 21:52 15,8 C 76 % 1010,4 hPa 0,0 l/m 0,0 km/h (0 Bft) O-NO 65 0 min 0,000 mm 0,0 UV-I 0 W/m 11,6 C 15,8 C 0,0 km/h (0 Bft) 0,00 %
15.09.2015 21:57 15,8 C 76 % 1010,5 hPa 0,0 l/m 0,0 km/h (0 Bft) NO 35 0 min 0,000 mm 0,0 UV-I 0 W/m 11,6 C 15,8 C 0,0 km/h (0 Bft) 0,00 %
15.09.2015 22:02 15,9 C 76 % 1010,6 hPa 0,0 l/m 0,0 km/h (0 Bft) O-NO 61 0 min 0,000 mm 0,0 UV-I 0 W/m 11,7 C 15,9 C 0,0 km/h (0 Bft) 0,00 %
15.09.2015 22:07 15,9 C 76 % 1010,5 hPa 0,0 l/m 0,0 km/h (0 Bft) NO 52 0 min 0,000 mm 0,0 UV-I 0 W/m 11,7 C 15,9 C 0,0 km/h (0 Bft) 0,00 %
15.09.2015 22:12 15,9 C 76 % 1010,7 hPa 0,0 l/m 0,0 km/h (0 Bft) NO 54 0 min 0,000 mm 0,0 UV-I 0 W/m 11,7 C 15,9 C 0,0 km/h (0 Bft) 0,00 %
15.09.2015 22:17 15,9 C 76 % 1010,6 hPa 0,0 l/m 0,0 km/h (0 Bft) N 351 0 min 0,000 mm 0,0 UV-I 0 W/m 11,7 C 15,9 C 0,0 km/h (0 Bft) 0,00 %
15.09.2015 22:22 15,9 C 76 % 1010,6 hPa 0,0 l/m 0,0 km/h (0 Bft) N 355 0 min 0,000 mm 0,0 UV-I 0 W/m 11,7 C 15,9 C 0,0 km/h (0 Bft) 0,00 %
15.09.2015 22:27 15,9 C 76 % 1010,9 hPa 0,0 l/m 0,0 km/h (0 Bft) O-NO 63 0 min 0,000 mm 0,0 UV-I 0 W/m 11,7 C 15,9 C 0,0 km/h (0 Bft) 0,00 %
15.09.2015 22:32 15,9 C 76 % 1010,8 hPa 0,0 l/m 0,0 km/h (0 Bft) NO 42 0 min 0,000 mm 0,0 UV-I 0 W/m 11,7 C 15,9 C 0,0 km/h (0 Bft) 0,00 %
15.09.2015 22:37 15,9 C 76 % 1010,6 hPa 0,0 l/m 0,0 km/h (0 Bft) N-NO 13 0 min 0,000 mm 0,0 UV-I 0 W/m 11,7 C 15,9 C 0,0 km/h (0 Bft) 0,00 %
15.09.2015 22:42 15,8 C 76 % 1010,5 hPa 0,0 l/m 0,0 km/h (0 Bft) NO 41 0 min 0,000 mm 0,0 UV-I 0 W/m 11,6 C 15,8 C 0,0 km/h (0 Bft) 0,00 %
15.09.2015 22:47 15,8 C 76 % 1010,5 hPa 0,0 l/m 0,0 km/h (0 Bft) NO 42 0 min 0,000 mm 0,0 UV-I 0 W/m 11,6 C 15,8 C 0,0 km/h (0 Bft) 0,00 %
15.09.2015 22:52 15,6 C 77 % 1010,5 hPa 0,0 l/m 0,0 km/h (0 Bft) O-NO 64 0 min 0,000 mm 0,0 UV-I 0 W/m 11,6 C 15,6 C 0,0 km/h (0 Bft) 0,00 %
15.09.2015 22:57 15,5 C 77 % 1010,6 hPa 0,0 l/m 0,0 km/h (0 Bft) N-NO 27 0 min 0,000 mm 0,0 UV-I 0 W/m 11,5 C 15,5 C 0,0 km/h (0 Bft) 0,00 %
15.09.2015 23:02 15,4 C 78 % 1010,4 hPa 0,0 l/m 0,0 km/h (0 Bft) NO 46 0 min 0,000 mm 0,0 UV-I 0 W/m 11,6 C 15,4 C 0,0 km/h (0 Bft) 0,00 %
15.09.2015 23:07 15,3 C 78 % 1010,4 hPa 0,0 l/m 0,0 km/h (0 Bft) NO 47 0 min 0,000 mm 0,0 UV-I 0 W/m 11,5 C 15,3 C 0,0 km/h (0 Bft) 0,00 %
15.09.2015 23:12 15,2 C 79 % 1010,3 hPa 0,0 l/m 0,0 km/h (0 Bft) NO 49 0 min 0,000 mm 0,0 UV-I 0 W/m 11,6 C 15,2 C 0,0 km/h (0 Bft) 0,00 %
15.09.2015 23:17 15,0 C 80 % 1010,2 hPa 0,0 l/m 0,0 km/h (0 Bft) NO 47 0 min 0,000 mm 0,0 UV-I 0 W/m 11,6 C 15,0 C 0,0 km/h (0 Bft) 0,00 %
15.09.2015 23:22 14,7 C 80 % 1010,2 hPa 0,0 l/m 0,0 km/h (0 Bft) NO 49 0 min 0,000 mm 0,0 UV-I 0 W/m 11,3 C 14,7 C 0,0 km/h (0 Bft) 0,00 %
15.09.2015 23:27 14,4 C 81 % 1010,2 hPa 0,0 l/m 0,0 km/h (0 Bft) NO 44 0 min 0,000 mm 0,0 UV-I 0 W/m 11,2 C 14,4 C 0,0 km/h (0 Bft) 0,00 %
15.09.2015 23:32 14,2 C 81 % 1010,1 hPa 0,0 l/m 0,0 km/h (0 Bft) NO 47 0 min 0,000 mm 0,0 UV-I 0 W/m 11,0 C 14,2 C 0,0 km/h (0 Bft) 0,00 %
15.09.2015 23:37 14,0 C 83 % 1010,0 hPa 0,0 l/m 0,0 km/h (0 Bft) NO 46 0 min 0,000 mm 0,0 UV-I 0 W/m 11,2 C 14,0 C 0,0 km/h (0 Bft) 0,00 %
15.09.2015 23:42 13,8 C 83 % 1010,1 hPa 0,0 l/m 0,0 km/h (0 Bft) NO 47 0 min 0,000 mm 0,0 UV-I 0 W/m 11,0 C 13,8 C 0,0 km/h (0 Bft) 0,00 %
15.09.2015 23:47 13,5 C 84 % 1010,0 hPa 0,0 l/m 0,0 km/h (0 Bft) NO 44 0 min 0,000 mm 0,0 UV-I 0 W/m 10,8 C 13,5 C 0,0 km/h (0 Bft) 0,00 %
15.09.2015 23:52 13,3 C 84 % 1009,9 hPa 0,0 l/m 0,0 km/h (0 Bft) NO 46 0 min 0,000 mm 0,0 UV-I 0 W/m 10,7 C 13,3 C 0,0 km/h (0 Bft) 0,00 %
15.09.2015 23:57 13,1 C 85 % 1010,0 hPa 0,0 l/m 0,0 km/h (0 Bft) NO 43 0 min 0,000 mm 0,0 UV-I 0 W/m 10,6 C 13,1 C 0,0 km/h (0 Bft) 0,00 %
_ Min-Zeit 00:01 12:57 17:02 - 00:01 - - - - - - 12:57 00:01 00:01 00:01
Minimum _ 9,8 C 50 % 1008,6 hPa - 0,0 km/h (0 Bft) - - - - - - 8,3 C 9,8 C 0,0 km/h (0 Bft) 0,00 %
_ Max-Zeit 17:07 08:17 05:26 00:11 12:37 - - 10:27 00:01 12:17 13:22 08:42 17:07 12:37 00:01
Maximum _ 21,0 C 99 % 1014,3 hPa 0,3 l/m 11,5 km/h
O-SO (2 Bft)
- - 5 min 0,000 mm 3,0 UV-I 854 W/m 12,7 C 21,0 C 15,8 km/h
O-SO (3 Bft)
0,00 %
Durchschnitt _ 15,1 C 79 % 1011,5 hPa #0,3 l/m 0,6 km/h (0 Bft) O-SO - #4:40 h #0,000 mm 1,5 UV-I 280 W/m 11,0 C 15,1 C 1,4 km/h (1 Bft) 0,00 %